Regional Weather Roundup
Issued by NWS Mt. Holly, NJ

Home | Current Version | Previous Version | Text Only | Print | Product List | Glossary On
Versions: 1 2 3 4 5 6 7 8 9 10 11 12 13 14 15 16 17 18 19 20 21 22 23 24 25 26 27 28
000
ASUS41 KPHI 191111
RWRPHI

REGIONAL WEATHER ROUNDUP
NATIONAL WEATHER SERVICE MOUNT HOLLY NJ
600 AM EST SUN NOV 19 2017

NOTE:  "FAIR" INDICATES FEW OR NO CLOUDS BELOW 12,000 FEET WITH NO
SIGNIFICANT WEATHER AND/OR OBSTRUCTIONS TO VISIBILITY.

 * = STATION DOES NOT REPORT PRECIPITATION (E.G. RAIN, SNOW, ETC.)
        OR FOG.

NJZ015>026-191200-
SOUTHERN NEW JERSEY

CITY           SKY/WX    TMP DP  RH WIND       PRES   REMARKS
POMONA         LGT RAIN  61  57  87 SW15G25   29.31F
MILLVILLE      LGT RAIN  61  57  87 SW10G30   29.32F
WRIGHTSTOWN    LGT RAIN  59  55  88 SW16      29.25F
MOUNT HOLLY    LGT RAIN  59  57  93 SW14G25   29.27F
TRENTON        CLOUDY    59  56  89 SW17G25   29.24F

$$
NJZ001>014-191200-
NORTHERN NEW JERSEY

CITY           SKY/WX    TMP DP  RH WIND       PRES   REMARKS
SUSSEX         HVY RAIN  56  55  97 VRB3      29.17F FOG
ANDOVER*       NOT AVBL
NEWARK         LGT RAIN  59  56  89 S20G28    29.23F
TETERBORO      LGT RAIN  59  56  89 SW18G24   29.21F
CALDWELL       CLOUDY    58  57  97 SW10G23   29.21F
SOMERVILLE     LGT RAIN  58  56  93 S8G17     29.21F
ALLAIRE*       LGT RAIN  59  56  89 SW15G25   29.28F
TOMS RIVER*    LGT RAIN  59  56  89 SW17      29.29F

$$
PAZ043-044-047-054-055-060>062-066>071-191200-
EASTERN PENNSYLVANIA

CITY           SKY/WX    TMP DP  RH WIND       PRES   REMARKS
PHILADELPHIA   LGT RAIN  58  55  90 SW21G33   29.29S
NORTH PHILA    LGT RAIN  60  56  86 SW15G23   29.28F
BLUE BELL*     CLOUDY    55  54  94 SW9G20    29.28R
DOYLESTOWN     LGT RAIN  57  53  86 SW9G23    29.24F
QUAKERTOWN*    CLOUDY    57  52  82 W21G31    29.26R
PERKASIE*      CLOUDY    55  55 100 SW13G22   29.25F
POTTSTOWN      LGT RAIN  55  52  89 W20G35    29.30R
LANCASTER        N/A    N/A N/A N/A MISG      29.36R
COATESVILLE    CLOUDY    52  43  71 W26G41    29.35R
READING        CLOUDY    53  43  68 W22G41    29.32R
ALLENTOWN      CLOUDY    58  49  72 W25G35    29.23R
MOUNT POCONO   NOT AVBL
HAZLETON       CLOUDY    45  43  93 W16G24    29.32R
LEHIGHTON      CLOUDY    52  43  71 W13G21    29.28R
WILKES BARRE   CLOUDY    50  45  83 SW24G35   29.24R

$$
DEZALL-MDZ008-012-015-019-020-191200-
DELAWARE AND EASTERN MARYLAND

CITY           SKY/WX    TMP DP  RH WIND       PRES   REMARKS
WILMINGTON     LGT RAIN  58  53  84 W29G37    29.33R
DOVER          LGT RAIN  59  57  94 S20G26    29.31F
GEORGETOWN     LGT RAIN  61  56  83 SW22G31   29.39R
EASTON         MOCLDY    59  48  67 NW22G41   29.46R
ABERDEEN       CLOUDY    53  42  68 W21G35    29.40R
OCEAN CITY     LGT RAIN  58  56  93 SW18G26   29.42S
WALLOPS ISLAND RAIN      60  57  89 SW18G25   29.45R
CAMBRIDGE        N/A     61  55  82 SW9G17    29.40R
SALISBURY      RAIN      59  57  93 SW21G28   29.41R

$$
PAZ001-021-NYZ056-072-MDZ011-DCZ001-191200-
OTHER NEARBY LOCATIONS

CITY           SKY/WX    TMP DP  RH WIND       PRES   REMARKS
HARRISBURG     MOCLDY    48  36  63 W23G32    29.41R
STATE COLLEGE  LGT RAIN  39  36  87 W23       29.46R WCI  29
WILLIAMSPORT   CLOUDY    48  40  73 W13       29.36R
BINGHAMTON     LGT RAIN  39  37  92 W17G36    29.20R WCI  30
NEW YORK CITY  LGT RAIN  59  56  89 SW8G24    29.25F
BALTIMORE      PTCLDY    51  38  60 W30G46    29.43R
WASHINGTON DC  PTCLDY    54  38  54 NW29G48   29.48R

$$




USA.gov is the U.S. government's official web portal to all federal, state and local government web resources and services.